Raton, NM

4:39 PM MST on December 04, 2016 (GMT -0700)
Raton Municipal-Crews

Weather History for KRTN - March, 2013

Change the Weather History Date:

Sunday, March 10, 2013

  Actual Average (KTAD) Record (KTAD)
Temperature  
Mean Temperature 30 °F 41 °F  
Max Temperature 39 °F 56 °F 84 °F (1989)
Min Temperature 21 °F 26 °F 3 °F (1969)
Degree Days  
Heating Degree Days 35 24  
Month to date heating degree days 253  
Since 1 July heating degree days 4375  
Cooling Degree Days 0 0  
Month to date cooling degree days 0  
Year to date cooling degree days 0  
Moisture  
Dew Point 14 °F    
Average Humidity 55    
Maximum Humidity 72    
Minimum Humidity 32    
Precipitation  
Precipitation 0.00 in 0.02 in 0.79 in (1968)
Sea Level Pressure  
Sea Level Pressure 30.08 in    
Wind  
Wind Speed 19 mph (NNE)    
Max Wind Speed 30 mph    
Max Gust Speed 43 mph    
T = Trace of Precipitation, MM = Missing Value Source: NWS Daily Summary

Daily Weather History Graph

Daily Weather History Graph

Search for Another Location

Airport or City:

Trip Planner

Search our weather history database for the weather conditions in past years. The results will help you decide how hot, cold, wet, or windy it might be!

Date:

Astronomy

Mar. 10, 2013 Rise Set
Actual Time 7:15 AM MDT 7:01 PM MDT
Civil Twilight 6:49 AM MDT 7:26 PM MDT
Nautical Twilight 6:19 AM MDT 7:56 PM MDT
Astronomical Twilight 5:49 AM MDT 8:27 PM MDT
Moon 6:16 AM MDT (3/10) 6:11 PM MDT (3/10)
Length of Visible Light 12h 37m
Length of Day
11h 45m
Waning Crescent, 1% of the Moon is Illuminated
Mar 10
Waning Crescent
Mar 11
New
Mar 19
First Quarter
Mar 27
Full
Apr 2
Last Quarter

Hourly Weather History & Observations

Time (MDT) Temp. Windchill Dew Point Humidity Pressure Visibility Wind Dir Wind Speed Gust Speed Precip Events Conditions
12:53 AM 25.0 °F 9.9 °F 15.1 °F 66% 29.98 in - North 23.0 mph 42.6 mph 0.00 in   Overcast
1:53 AM 24.1 °F 6.9 °F 12.0 °F 60% 30.02 in - North 29.9 mph 38.0 mph 0.00 in   Clear
3:53 AM 23.0 °F 6.0 °F 12.0 °F 63% 30.03 in - North 27.6 mph 38.0 mph N/A   Clear
4:53 AM 21.9 °F 4.8 °F 12.0 °F 66% 30.02 in - North 26.5 mph 33.4 mph N/A   Clear
5:53 AM 21.9 °F 5.1 °F 12.0 °F 66% 30.02 in - North 25.3 mph 40.3 mph N/A   Clear
6:53 AM 21.9 °F 5.8 °F 10.9 °F 63% 30.08 in - North 23.0 mph 32.2 mph N/A   Clear
7:53 AM 21.9 °F 8.7 °F 12.9 °F 68% 30.10 in - North 15.0 mph 25.3 mph N/A   Clear
8:53 AM 24.1 °F 13.7 °F 14.0 °F 65% 30.13 in - NE 10.4 mph - N/A   Mostly Cloudy
9:53 AM 27.0 °F 16.7 °F 18.0 °F 69% 30.12 in - NE 11.5 mph - 0.00 in Snow Light Snow
10:53 AM 28.0 °F 17.0 °F 19.0 °F 69% 30.13 in - ENE 13.8 mph - 0.00 in   Mostly Cloudy
11:53 AM 33.1 °F 23.9 °F 19.9 °F 59% 30.09 in - NNE 12.7 mph 16.1 mph N/A   Clear
12:53 PM 35.1 °F 24.8 °F 10.9 °F 37% 30.07 in - North 17.3 mph 28.8 mph N/A   Partly Cloudy
1:53 PM 37.0 °F 27.4 °F 12.9 °F 37% 30.05 in - NNE 17.3 mph 25.3 mph N/A   Clear
2:53 PM 39.0 °F 31.0 °F 12.9 °F 34% 30.04 in - North 13.8 mph 25.3 mph N/A   Clear
3:53 PM 39.9 °F 31.8 °F 12.0 °F 32% 30.03 in - North 15.0 mph 19.6 mph N/A   Clear
4:53 PM 39.0 °F 31.0 °F 14.0 °F 36% 30.04 in - North 13.8 mph - N/A   Clear
5:53 PM 37.0 °F 26.7 °F 14.0 °F 39% 30.04 in - North 19.6 mph - N/A   Clear
6:53 PM 34.0 °F 24.2 °F 12.9 °F 42% 30.09 in - North 15.0 mph - N/A   Clear
7:53 PM 30.9 °F 20.7 °F 14.0 °F 50% 30.12 in - NE 13.8 mph - N/A   Clear
8:53 PM 32.0 °F 23.6 °F 14.0 °F 48% 30.13 in - North 10.4 mph - N/A   Clear
9:53 PM 32.0 °F 24.2 °F 12.9 °F 45% 30.11 in - North 9.2 mph - N/A   Clear
10:53 PM 26.1 °F 17.6 °F 15.1 °F 63% 30.15 in - South 8.1 mph - N/A   Clear
11:53 PM 25.0 °F 20.7 °F 16.0 °F 69% 30.12 in - NNE 3.5 mph - N/A   Clear
12:53 AM 23.0 °F 15.8 °F 15.1 °F 72% 30.13 in - NNE 5.8 mph - N/A   Clear